Houghton, MI

6:25 AM EDT on April 24, 2017 (GMT -0400)
Houghton County Memorial

Weather History for KCMX - October, 2012

Change the Weather History Date:

Tuesday, October 2, 2012

  Actual Average Record
Temperature  
Mean Temperature 51 °F -  
Max Temperature 59 °F 57 °F 86 °F (1953)
Min Temperature 43 °F 41 °F 24 °F (1952)
Degree Days  
Heating Degree Days 14    
Growing Degree Days 1 (Base 50)    
Moisture  
Dew Point 45 °F    
Average Humidity 82    
Maximum Humidity 97    
Minimum Humidity 51    
Precipitation  
Precipitation 0.01 in - - ()
Sea Level Pressure  
Sea Level Pressure 29.94 in    
Wind  
Wind Speed 6 mph (ENE)    
Max Wind Speed 9 mph    
Max Gust Speed -    
Visibility 10 miles    
Events      
Averages and records for this station are not official NWS values.
T = Trace of Precipitation, MM = Missing Value Source: NWS Daily Summary

Daily Weather History Graph

Daily Weather History Graph

Search for Another Location

Airport or City:

Trip Planner

Search our weather history database for the weather conditions in past years. The results will help you decide how hot, cold, wet, or windy it might be!

Date:

Astronomy

Oct. 02, 2012 Rise Set
Actual Time 7:54 AM EDT 7:30 PM EDT
Civil Twilight 7:24 AM EDT 8:00 PM EDT
Nautical Twilight 6:48 AM EDT 8:36 PM EDT
Astronomical Twilight 6:12 AM EDT 9:12 PM EDT
Moon 8:29 PM EDT (10/2) 10:35 AM EDT (10/2)
Length of Visible Light 12h 36m
Length of Day
11h 35m
Waning Gibbous, 94% of the Moon is Illuminated
Oct 2
Waning Gibbous
Oct 8
Last Quarter
Oct 15
New
Oct 21
First Quarter
Oct 29
Full

Hourly Weather History & Observations

Time (EDT) Temp. Windchill Dew Point Humidity Pressure Visibility Wind Dir Wind Speed Gust Speed Precip Events Conditions
12:53 AM 48.0 °F - 46.0 °F 93% 29.92 in 10.0 mi NNW 6.9 mph - N/A   Clear
1:53 AM 48.0 °F - 46.0 °F 93% 29.92 in 10.0 mi North 8.1 mph - N/A   Clear
2:53 AM 46.4 °F 43.5 °F 44.6 °F 93% 29.91 in 10.0 mi North 5.8 mph - N/A   Clear
3:53 AM 46.0 °F 43.9 °F 43.0 °F 89% 29.93 in 10.0 mi North 4.6 mph - N/A   Clear
4:53 AM 46.0 °F 42.5 °F 42.1 °F 86% 29.93 in 10.0 mi North 6.9 mph - N/A   Clear
5:53 AM 45.0 °F 41.2 °F 43.0 °F 93% 29.94 in 10.0 mi North 6.9 mph - N/A   Clear
6:53 AM 44.1 °F 40.8 °F 42.1 °F 93% 29.95 in 10.0 mi North 5.8 mph - N/A   Clear
7:53 AM 43.0 °F - 42.1 °F 97% 29.98 in 10.0 mi Calm Calm - N/A   Clear
8:53 AM 43.0 °F 41.3 °F 41.0 °F 93% 29.98 in 10.0 mi NNW 3.5 mph - 0.01 in   Clear
9:53 AM 50.0 °F - 45.0 °F 83% 29.98 in 10.0 mi NNE 4.6 mph - N/A   Clear
10:53 AM 52.0 °F - 44.1 °F 74% 29.99 in 10.0 mi ENE 5.8 mph - N/A   Scattered Clouds
11:06 AM 53.6 °F - 42.8 °F 67% 29.98 in 10.0 mi East 5.8 mph - N/A   Mostly Cloudy
11:53 AM 54.0 °F - 43.0 °F 66% 29.99 in 10.0 mi ESE 5.8 mph - N/A   Overcast
12:14 PM 53.6 °F - 42.8 °F 67% 29.98 in 10.0 mi SE 6.9 mph - N/A   Scattered Clouds
12:53 PM 55.9 °F - 42.1 °F 60% 29.99 in 10.0 mi SSE 6.9 mph - N/A   Partly Cloudy
1:53 PM 57.9 °F - 41.0 °F 53% 29.97 in 10.0 mi Calm Calm - N/A   Clear
2:53 PM 59.0 °F - 41.0 °F 51% 29.94 in 10.0 mi Variable 5.8 mph - N/A   Clear
3:53 PM 57.9 °F - 44.1 °F 60% 29.94 in 10.0 mi SSE 6.9 mph - N/A   Clear
4:53 PM 57.9 °F - 43.0 °F 58% 29.92 in 10.0 mi East 4.6 mph - N/A   Clear
5:53 PM 55.9 °F - 44.1 °F 64% 29.93 in 10.0 mi ESE 8.1 mph - N/A   Clear
6:53 PM 52.0 °F - 46.0 °F 80% 29.93 in 10.0 mi ESE 8.1 mph - N/A   Clear
7:53 PM 48.2 °F - 46.4 °F 93% 29.92 in 10.0 mi East 6.9 mph - N/A   Clear
8:26 PM 48.2 °F - 46.4 °F 93% 29.92 in 10.0 mi East 6.9 mph - N/A   Partly Cloudy
8:45 PM 50.0 °F - 48.2 °F 94% 29.92 in 10.0 mi East 5.8 mph - N/A   Mostly Cloudy
8:53 PM 50.0 °F - 48.0 °F 93% 29.94 in 10.0 mi East 8.1 mph - N/A   Mostly Cloudy
9:53 PM 50.0 °F - 48.2 °F 94% 29.92 in 10.0 mi East 8.1 mph - N/A   Mostly Cloudy
10:45 PM 50.0 °F - 48.2 °F 94% 29.92 in 10.0 mi ESE 9.2 mph - N/A   Scattered Clouds
10:53 PM 50.0 °F - 48.9 °F 96% 29.93 in 10.0 mi East 9.2 mph - N/A   Scattered Clouds
11:53 PM 48.9 °F - 48.0 °F 97% 29.93 in 10.0 mi ESE 6.9 mph - N/A   Clear